Back to catalog

CZ-6A DEB

AlivePO
NORAD 54917·DEBRIS·🇨🇳 China

Launched Nov 11, 2022 from Taiyuan Satellite Launch Center

Loading…

Next Passes (next 24 hours)

TLE

FreshSource: Space-Track

Epoch: Sep 13, 2026, 04:25 UTC

1 54917U 22151RE  26256.18420450  .00006072  00000-0  85456-3 0  9998
2 54917  98.6348 334.0700 0065835 351.0182   8.9842 14.76238825200245

Track CZ-6A DEB in real time with AllMySat

Download on the App Store